O'Neill, NE

5:30 PM CDT on August 29, 2016 (GMT -0500)
The O'Neill Municipal-Baker

Weather History for KONL - October, 2013

Change the Weather History Date:

Sunday, October 6, 2013

  Actual Average Record
Temperature  
Mean Temperature 51 °F -  
Max Temperature 61 °F 67 °F 93 °F (1990)
Min Temperature 41 °F 39 °F 21 °F (2012)
Degree Days  
Heating Degree Days 14    
Growing Degree Days 1 (Base 50)    
Moisture  
Dew Point 35 °F    
Average Humidity 65    
Maximum Humidity 90    
Minimum Humidity 24    
Precipitation  
Precipitation 0.12 in - - ()
Sea Level Pressure  
Sea Level Pressure 29.97 in    
Wind  
Wind Speed 19 mph (NW)    
Max Wind Speed 28 mph    
Max Gust Speed 36 mph    
Visibility 10 miles    
Events Rain    
Averages and records for this station are not official NWS values.
T = Trace of Precipitation, MM = Missing Value Source: NWS Daily Summary

Daily Weather History Graph

Daily Weather History Graph

Search for Another Location

Airport or City:

Trip Planner

Search our weather history database for the weather conditions in past years. The results will help you decide how hot, cold, wet, or windy it might be!

Date:

Astronomy

Oct. 06, 2013 Rise Set
Actual Time 7:37 AM CDT 7:07 PM CDT
Civil Twilight 7:09 AM CDT 7:35 PM CDT
Nautical Twilight 6:37 AM CDT 8:07 PM CDT
Astronomical Twilight 6:04 AM CDT 8:40 PM CDT
Moon 9:26 AM CDT (10/6) 8:04 PM CDT (10/6)
Length of Visible Light 12h 25m
Length of Day
11h 29m
Waxing Crescent, 3% of the Moon is Illuminated
Oct 6
Waxing Crescent
Oct 11
First Quarter
Oct 18
Full
Oct 26
Last Quarter
Nov 3
New

Hourly Weather History & Observations

Time (CDT) Temp. Windchill Dew Point Humidity Pressure Visibility Wind Dir Wind Speed Gust Speed Precip Events Conditions
12:15 AM 41.2 °F 32.4 °F 37.8 °F 88% 29.87 in 10.0 mi NW 18.4 mph 24.2 mph N/A   Light Drizzle
12:35 AM 41.2 °F 33.0 °F 37.8 °F 88% 29.87 in 10.0 mi NW 16.1 mph 24.2 mph N/A Rain Light Rain
12:55 AM 41.4 °F 31.9 °F 37.9 °F 88% 29.87 in 10.0 mi NW 21.9 mph 27.6 mph 0.01 in Rain Light Rain
1:15 AM 41.0 °F 32.2 °F 37.8 °F 88% 29.87 in 7.0 mi NW 18.4 mph 21.9 mph 0.01 in Rain Light Rain
1:35 AM 41.5 °F 32.6 °F 38.3 °F 88% 29.87 in 10.0 mi NW 19.6 mph 27.6 mph 0.03 in Rain Rain
1:55 AM 41.7 °F 32.9 °F 38.3 °F 88% 29.88 in 10.0 mi NW 19.6 mph 29.9 mph 0.06 in Rain Light Rain
2:15 AM 41.9 °F 33.4 °F 38.3 °F 87% 29.88 in 10.0 mi NW 18.4 mph 26.5 mph N/A   Light Drizzle
2:35 AM 41.9 °F 32.6 °F 38.5 °F 88% 29.88 in 10.0 mi NW 21.9 mph 27.6 mph 0.01 in Rain Light Rain
2:55 AM 41.9 °F 33.4 °F 38.7 °F 88% 29.89 in 7.0 mi NW 18.4 mph 25.3 mph 0.01 in   Drizzle
3:15 AM 42.1 °F 33.9 °F 39.2 °F 90% 29.89 in 5.0 mi NW 17.3 mph - 0.01 in Rain Light Rain
3:35 AM 42.4 °F 34.1 °F 39.4 °F 89% 29.89 in 10.0 mi NW 18.4 mph 24.2 mph 0.02 in   Light Drizzle
3:55 AM 42.8 °F 34.8 °F 39.4 °F 88% 29.89 in 10.0 mi NW 17.3 mph 23.0 mph 0.02 in   Overcast
4:15 AM 42.8 °F 34.5 °F 39.4 °F 88% 29.90 in 7.0 mi NW 18.4 mph 23.0 mph N/A   Overcast
4:35 AM 42.8 °F 35.4 °F 39.4 °F 88% 29.90 in 4.0 mi NW 15.0 mph 25.3 mph N/A   Overcast
4:55 AM 42.8 °F 34.3 °F 39.6 °F 88% 29.90 in 4.0 mi NW 19.6 mph 27.6 mph N/A   Overcast
5:15 AM 42.8 °F 33.8 °F 39.4 °F 88% 29.90 in 10.0 mi NW 21.9 mph 28.8 mph N/A   Overcast
5:35 AM 42.8 °F 34.8 °F 39.2 °F 87% 29.91 in 10.0 mi NW 17.3 mph 31.1 mph N/A   Overcast
5:55 AM 42.4 °F 34.4 °F 38.8 °F 87% 29.90 in 10.0 mi NW 17.3 mph 28.8 mph N/A   Overcast
6:15 AM 42.3 °F 33.1 °F 38.8 °F 88% 29.91 in 10.0 mi NW 21.9 mph 28.8 mph N/A   Light Drizzle
6:35 AM 42.3 °F 33.3 °F 39.0 °F 88% 29.91 in 10.0 mi NW 20.7 mph 29.9 mph N/A   Light Drizzle
6:55 AM 42.3 °F 32.8 °F 38.8 °F 88% 29.91 in 10.0 mi NW 23.0 mph 26.5 mph N/A   Light Drizzle
7:15 AM 42.3 °F 33.1 °F 38.5 °F 86% 29.93 in 10.0 mi NW 21.9 mph 28.8 mph 0.01 in Rain Light Rain
7:35 AM 41.9 °F 33.1 °F 38.3 °F 87% 29.93 in 7.0 mi NW 19.6 mph 27.6 mph 0.01 in Rain Light Rain
7:55 AM 41.5 °F 32.6 °F 37.9 °F 87% 29.93 in 10.0 mi NW 19.6 mph 26.5 mph 0.01 in Rain Light Rain
8:15 AM 41.0 °F 31.4 °F 37.6 °F 88% 29.94 in 7.0 mi NW 21.9 mph 28.8 mph 0.01 in Rain Light Rain
8:35 AM 41.0 °F 31.1 °F 36.9 °F 85% 29.94 in 7.0 mi NW 23.0 mph 31.1 mph 0.01 in   Overcast
8:55 AM 41.0 °F 31.4 °F 36.7 °F 85% 29.95 in 10.0 mi NW 21.9 mph 26.5 mph 0.01 in   Overcast
9:15 AM 41.0 °F 31.9 °F 36.3 °F 83% 29.95 in 10.0 mi NW 19.6 mph 24.2 mph N/A   Overcast
9:35 AM 41.2 °F 32.1 °F 35.6 °F 81% 29.96 in 10.0 mi WNW 19.6 mph 31.1 mph N/A   Overcast
9:55 AM 41.0 °F 31.1 °F 34.9 °F 79% 29.97 in 10.0 mi NW 23.0 mph 29.9 mph N/A   Overcast
10:15 AM 41.5 °F 32.4 °F 35.2 °F 78% 29.97 in 10.0 mi NW 20.7 mph 31.1 mph N/A   Overcast
10:35 AM 42.6 °F 34.0 °F 35.4 °F 76% 29.98 in 10.0 mi NW 19.6 mph 32.2 mph N/A   Overcast
10:55 AM 45.0 °F 36.9 °F 36.5 °F 72% 29.97 in 10.0 mi NW 20.7 mph 33.4 mph N/A   Scattered Clouds
11:15 AM 46.9 °F - 36.9 °F 68% 29.98 in 10.0 mi NW 27.6 mph 35.7 mph N/A   Clear
11:35 AM 48.4 °F - 37.6 °F 66% 29.98 in 10.0 mi NW 25.3 mph 31.1 mph N/A   Clear
11:55 AM 50.0 °F - 38.1 °F 64% 29.98 in 10.0 mi NW 27.6 mph 32.2 mph N/A   Clear
12:15 PM 50.2 °F - 36.5 °F 59% 29.99 in 10.0 mi NW 25.3 mph 32.2 mph N/A   Clear
12:35 PM 51.8 °F - 37.0 °F 57% 29.99 in 10.0 mi NW 20.7 mph 29.9 mph N/A   Clear
12:55 PM 52.9 °F - 35.2 °F 51% 30.00 in 10.0 mi NW 20.7 mph 29.9 mph N/A   Clear
1:15 PM 54.3 °F - 32.7 °F 44% 29.99 in 10.0 mi NW 23.0 mph 28.8 mph N/A   Clear
1:35 PM 54.7 °F - 28.2 °F 36% 29.98 in 10.0 mi NNW 21.9 mph 32.2 mph N/A   Clear
1:55 PM 55.6 °F - 26.4 °F 33% 29.98 in 10.0 mi NW 21.9 mph 29.9 mph N/A   Clear
2:15 PM 56.5 °F - 25.0 °F 30% 29.98 in 10.0 mi NW 23.0 mph 31.1 mph N/A   Clear
2:35 PM 57.4 °F - 23.9 °F 28% 29.97 in 10.0 mi NW 23.0 mph 32.2 mph N/A   Clear
2:55 PM 58.3 °F - 25.9 °F 29% 29.98 in 10.0 mi NW 18.4 mph 32.2 mph N/A   Clear
3:15 PM 59.0 °F - 25.9 °F 28% 29.98 in 10.0 mi NNW 23.0 mph 27.6 mph N/A   Clear
3:35 PM 59.9 °F - 25.0 °F 26% 29.98 in 10.0 mi NW 21.9 mph 28.8 mph N/A   Clear
3:55 PM 60.3 °F - 24.1 °F 25% 29.98 in 10.0 mi NNW 16.1 mph 27.6 mph N/A   Clear
4:15 PM 60.8 °F - 23.2 °F 24% 29.98 in 10.0 mi NNW 23.0 mph 31.1 mph N/A   Clear
4:35 PM 60.8 °F - 23.9 °F 24% 29.98 in 10.0 mi NW 21.9 mph 28.8 mph N/A   Clear
4:55 PM 60.8 °F - 26.1 °F 27% 29.99 in 10.0 mi NW 23.0 mph 28.8 mph N/A   Clear
5:15 PM 60.8 °F - 28.0 °F 29% 29.99 in 10.0 mi NW 23.0 mph 27.6 mph N/A   Clear
5:35 PM 61.0 °F - 28.0 °F 29% 30.00 in 10.0 mi NW 20.7 mph 29.9 mph N/A   Clear
5:55 PM 60.4 °F - 28.9 °F 30% 30.01 in 10.0 mi NW 18.4 mph 27.6 mph N/A   Clear
6:15 PM 59.7 °F - 29.3 °F 32% 30.02 in 10.0 mi NW 15.0 mph 25.3 mph N/A   Clear
6:35 PM 58.6 °F - 29.3 °F 33% 30.02 in 10.0 mi NW 12.7 mph 21.9 mph N/A   Clear
6:55 PM 56.3 °F - 31.1 °F 38% 30.02 in 10.0 mi NW 11.5 mph - N/A   Clear
7:15 PM 54.5 °F - 33.8 °F 46% 30.03 in 10.0 mi WNW 9.2 mph - N/A   Clear
7:35 PM 53.6 °F - 33.8 °F 47% 30.04 in 10.0 mi WNW 10.4 mph - N/A   Clear
7:55 PM 52.9 °F - 35.8 °F 52% 30.04 in 10.0 mi WNW 10.4 mph - N/A   Clear
8:15 PM 51.8 °F - 37.9 °F 59% 30.04 in 10.0 mi West 10.4 mph - N/A   Clear
8:35 PM 51.1 °F - 38.3 °F 62% 30.05 in 10.0 mi WNW 11.5 mph - N/A   Clear
8:55 PM 50.9 °F - 37.4 °F 60% 30.05 in 10.0 mi WNW 10.4 mph - N/A   Clear
9:15 PM 49.5 °F - 36.7 °F 61% 30.06 in 10.0 mi WNW 6.9 mph - N/A   Clear
9:35 PM 48.2 °F - 36.1 °F 63% 30.06 in 10.0 mi WNW 4.6 mph - N/A   Clear
9:55 PM 47.5 °F - 35.6 °F 63% 30.07 in 10.0 mi WNW 5.8 mph - N/A   Clear
10:15 PM 46.4 °F 43.5 °F 35.2 °F 65% 30.07 in 10.0 mi West 5.8 mph - N/A   Clear
10:35 PM 44.6 °F 39.7 °F 35.6 °F 71% 30.07 in 10.0 mi WNW 9.2 mph - N/A   Clear
10:55 PM 44.6 °F 40.2 °F 35.6 °F 71% 30.07 in 10.0 mi West 8.1 mph - N/A   Clear
11:15 PM 43.7 °F 39.7 °F 35.2 °F 72% 30.07 in 10.0 mi West 6.9 mph - N/A   Clear
11:35 PM 42.8 °F 39.3 °F 35.2 °F 75% 30.07 in 10.0 mi West 5.8 mph - N/A   Clear
11:55 PM 42.1 °F 38.4 °F 35.2 °F 77% 30.07 in 10.0 mi West 5.8 mph - N/A   Clear